Location: Gravenhorst
(52.4088°N, 10.5639°E)
Time: 10:45:23
(UTC+00:00)

Daily predictions for brighter satellites

Satellite Brightness Start Highest point End
(mag) Time Altitude Azimuth Time Altitude Azimuth Time Altitude Azimuth
Cosmos 2100 Rocket 4.5 19:35:22 10° SSW 19:41:36 70° WNW 19:47:58 10° N
NOSS 3-4 (A) 4.1 19:36:19 10° NW 19:42:38 60° NE 19:50:06 10° ESE
SL-16 R/B 2.5 19:37:14 10° NNW 19:42:52 59° NE 19:48:28 10° SE
Meteor 1-27 4.2 19:37:22 10° S 19:42:59 78° E 19:48:34 10° NNE
NOSS 3-4 (C) 4.1 19:36:56 10° NW 19:43:17 60° NE 19:50:46 10° ESE
Okean 1 Rocket 4.4 19:45:19 10° SSW 19:49:33 45° WNW 19:53:51 10° N
Cosmos 1544 Rocket 4.4 19:46:52 10° SSE 19:50:45 32° E 19:54:36 10° NNE
Cosmos 2233 Rocket 4.0 19:45:55 10° S 19:52:03 69° E 19:58:10 10° NNE
ATLAS 2AS CENTAUR R/B 4.0 19:46:24 10° W 19:53:00 45° NNW 19:59:31 10° NE
SKYMED 3 4.3 19:52:30 10° NNE 19:56:29 84° ESE 20:00:27 10° SSW
CZ-2C R/B 4.0 19:56:02 10° ESE 19:57:55 17° ENE 19:59:47 10° NNE
Cosmos 1980 Rocket 3.7 19:53:07 10° NW 19:58:10 33° WSW 20:03:11 10° S
COSMOS 2406 3.6 19:53:52 10° S 19:59:15 43° ESE 20:04:39 10° NE
Okean-O 2.6 19:56:04 10° SSE 20:00:28 87° ENE 20:04:52 10° NNW
Cosmos 1782 2.7 19:57:10 10° SSW 20:00:40 72° WNW 20:04:13 10° N
CZ-4 R/B 3.4 19:58:06 10° SSW 20:01:03 23° W 20:04:02 10° NW
Ariane Rocket 3.6 19:58:20 10° SE 20:03:05 44° ENE 20:07:54 10° N
Meteor 1-20 Rocket 4.4 19:58:24 10° N 20:03:57 64° ENE 20:09:35 10° SSE
Cosmos 1758 Rocket 3.6 20:01:28 10° N 20:05:52 69° ENE 20:10:16 10° SSE
Cosmos 1933 4.1 20:02:35 10° SSE 20:05:59 32° E 20:09:24 10° NNE
SPOT 3 Rocket 3.8 20:01:29 10° SSE 20:06:31 58° ENE 20:11:34 10° N
Spot 2 Rocket 3.7 20:03:27 10° S 20:08:27 76° WSW 20:13:32 10° NNW
DNEPR-1 R/B 4.4 20:04:03 10° NW 20:09:21 77° NE 20:15:40 11° SE
Cosmos 2333 Rocket 2.3 20:05:01 10° NNW 20:10:45 79° ENE 20:16:16 11° SE
Cosmos 1725 Rocket 4.4 20:04:35 10° SSW 20:10:49 68° WNW 20:17:03 10° N
ERS-1 Rocket 4.4 20:10:08 10° SSW 20:14:43 35° W 20:19:20 10° NNW
Tsikada Rocket 4.3 20:11:26 10° NNW 20:17:33 67° W 20:23:38 10° S
Cosmos 2360 Rocket 2.4 20:19:00 10° NNW 20:24:40 63° NE 20:29:39 13° SE
USA 245 4.3 20:19:52 10° SSE 20:25:46 86° ENE 20:31:17 10° NNW
Cosmos 1461 2.8 20:23:34 10° SSW 20:27:06 44° SE 20:30:37 10° NE
CZ-4B R/B 3.4 20:25:37 12° SSE 20:29:57 74° ENE 20:34:50 10° NNW
Cosmos 1602 Rocket 3.5 20:25:46 10° N 20:30:05 70° ENE 20:33:49 14° SSE
CZ-4C R/B 3.3 20:26:33 10° WSW 20:31:00 45° NNW 20:36:48 10° NE
Cosmos 1992 Rocket 4.0 20:26:36 10° SSW 20:31:49 86° WNW 20:37:03 10° NNE
YAOGAN 11 4.2 20:28:43 10° NNE 20:33:10 83° WNW 20:37:38 10° SSW
Cosmos 1777 Rocket 4.1 20:31:40 10° NNW 20:36:56 73° ENE 20:41:09 16° SSE
ISS -3.9 20:34:16 10° W 20:37:37 80° S 20:40:59 10° E
Cosmos 2219 Rocket 2.7 20:32:30 10° NNW 20:38:03 53° NE 20:42:48 14° SE
Meteor 1-25 Rocket 4.2 20:32:59 10° NNW 20:38:43 87° ENE 20:43:46 13° SSE
Cosmos 220 Rocket 4.1 20:36:26 10° S 20:40:21 49° ESE 20:44:21 10° NE
Cosmos 1437 Rocket 2.4 20:36:59 10° S 20:40:32 80° ESE 20:44:09 10° NNE
USA 290 3.6 20:39:45 19° SE 20:40:39 21° ESE 20:43:07 10° NE
SL-08 R/B 4.3 20:38:42 10° N 20:43:24 50° WNW 20:47:58 10° SW
Cosmos 1503 Rocket 4.1 20:40:14 10° NNW 20:45:26 67° ENE 20:49:23 17° SE
Cosmos 1626 Rocket 4.5 20:42:11 10° NNW 20:46:22 46° W 20:50:33 10° SSW
DEBRIS 3.7 20:44:04 10° WSW 20:47:25 66° S 20:58:16 10° E
Cosmos 2098 Rocket 3.2 20:44:22 13° S 20:48:28 56° E 20:52:29 10° NNE
Cosmos 1076 Rocket 4.1 20:44:39 10° N 20:48:44 43° ENE 20:51:27 19° SE
NOSS 3-3 (A) 4.0 20:45:02 10° SW 20:50:22 77° NW 20:56:56 10° NE
Terra 4.2 20:49:21 10° SW 20:52:37 19° W 20:55:54 10° NW
RESURS DK-1 4.3 20:50:42 10° NNW 20:53:50 22° NE 20:56:57 10° E
Cosmos 2151 3.7 20:50:25 10° NNW 20:54:24 48° W 20:58:09 11° SSW
Cosmos 2322 Rocket 2.3 20:50:47 10° NNW 20:56:29 80° WSW 21:00:46 18° SSE
Cosmos 1486 Rocket 4.1 20:51:17 10° NNW 20:56:33 75° WSW 21:00:35 17° SSE
IRS-1C Rocket 4.3 20:53:40 14° S 20:58:12 72° WSW 21:03:31 10° NNW
Cosmos 1513 Rocket 4.5 20:52:01 10° S 20:58:15 88° E 21:04:24 10° N
Cosmos 1464 Rocket 4.0 20:53:50 13° S 20:59:23 66° E 21:05:32 10° NNE
Cosmos 1354 Rocket 4.2 20:54:30 10° NNW 20:59:44 63° ENE 21:03:26 19° SE
Cosmos 909 Rocket 4.4 20:54:30 10° SW 21:00:46 73° NW 21:07:28 10° NE
Cosmos 2082 Rocket 3.5 20:56:56 10° WSW 21:02:24 45° NW 21:07:54 10° NNE
USA 306 1.9 21:01:30 10° W 21:04:05 48° N 21:04:50 27° NE
Meteor 2-10 4.3 20:59:04 10° NNW 21:04:51 89° W 21:09:14 18° S
Cosmos 1606 Rocket 3.6 21:03:17 18° S 21:06:22 63° E 21:10:39 10° NNE
Cosmos 1766 3.8 21:08:51 10° N 21:11:49 33° ENE 21:13:02 24° ESE
CZ-4B R/B 3.9 21:09:42 13° SSW 21:12:17 31° W 21:15:27 10° NNW
USA 186 4.4 21:13:03 10° WSW 21:13:51 11° W 21:14:38 10° WNW
Cosmos 2237 Rocket 4.0 21:09:41 10° NNW 21:14:17 24° NE 21:18:50 10° E
Cosmos 1428 Rocket 4.5 21:08:14 10° N 21:14:31 89° E 21:19:10 19° S
Cosmos 1726 Rocket 3.5 21:12:34 23° SSE 21:14:50 55° E 21:18:49 10° NNE
Okean O Rocket 3.8 21:13:05 10° SW 21:16:12 19° W 21:19:18 10° NW
Cosmos 1092 Rocket 4.3 21:10:15 10° N 21:16:20 56° ENE 21:20:29 21° SE
Cosmos 540 Rocket 3.9 21:13:16 20° SSE 21:16:29 44° ESE 21:21:21 10° NE
Aureole 1 Rocket 4.1 21:12:24 10° NNW 21:17:56 62° ENE 21:22:39 20° SE
Cosmos 1805 3.8 21:17:20 10° NNW 21:20:25 39° W 21:22:21 19° SSW
NOSS 3-3 (C) 4.4 21:16:59 10° WSW 21:22:24 63° NW 21:29:03 10° NE
COSMOS 2428 3.5 21:20:24 10° NNW 21:25:53 45° NE 21:30:13 16° ESE
SL-16 R/B 3.5 21:21:45 10° NW 21:26:39 31° WSW 21:30:55 13° SSW
Okean 1-7 Rocket 4.1 21:23:10 10° NNW 21:27:32 54° W 21:30:35 19° SSW
CZ-2C R/B 3.5 21:27:14 20° SW 21:28:29 28° W 21:30:57 10° NW
Geosat 4.3 21:27:37 10° NE 21:32:26 45° ESE 21:35:08 24° S
NOSS 3-4 (A) 4.3 21:27:10 10° NW 21:33:36 49° SW 21:38:38 21° S
NOSS 3-4 (C) 4.3 21:27:48 10° NW 21:34:14 50° SW 21:39:18 21° S
Cosmos-2242 3.1 21:34:03 29° SSE 21:35:49 52° E 21:39:50 10° NNE
Cosmos 2034 Rocket 4.0 21:32:54 18° S 21:37:48 83° E 21:44:11 10° NNE
Ariane Rocket 4.3 21:38:06 13° SSW 21:42:06 33° W 21:46:40 10° NNW
COSMOS 2406 4.4 21:38:05 10° WSW 21:43:34 45° NW 21:49:04 10° NNE
ATLAS 2AS CENTAUR R/B 4.5 21:39:24 10° WNW 21:45:27 32° N 21:51:27 10° ENE
USA 234 4.4 21:41:34 10° ENE 21:46:22 21° SE 21:47:11 21° SE
TSX-5 3.3 21:45:59 10° NNW 21:49:05 68° NE 21:50:06 39° SE
Cosmos 2333 Rocket 4.0 21:50:09 10° NW 21:54:26 22° WSW 21:58:17 12° SSW
Helios 1B rocket 1.9 21:55:11 42° SSE 21:56:17 83° ENE 21:59:48 10° NNW
Cosmos 2279 Rocket 4.4 21:53:17 25° SSE 21:56:39 50° E 22:02:41 10° NNE
Cosmos 1470 2.9 21:54:15 10° N 21:57:27 44° ENE 21:58:12 37° ESE
Cosmos 1763 Rocket 3.5 21:53:12 15° SSW 21:57:34 84° WNW 22:02:52 10° NNE
Cosmos 1536 2.5 21:54:16 10° NNW 21:57:58 86° W 21:59:12 40° S
Okean 1 4.1 21:56:18 19° SW 21:58:32 41° WNW 22:01:59 10° N
Cosmos 1898 Rocket 3.6 21:54:03 10° NNW 21:59:14 68° ENE 22:02:03 27° SE
Cosmos 2221 3.5 21:59:07 26° ESE 22:00:15 31° E 22:03:57 10° NNE
Cosmos 1707 1.8 21:59:51 60° SSW 22:00:16 80° W 22:03:07 10° N
Cosmos 1634 Rocket 4.0 21:57:45 25° S 22:01:28 73° E 22:07:40 10° NNE
CSL-04 DEB 4.0 22:01:35 42° SSE 22:02:43 84° ENE 22:06:22 10° NNW
CZ-2C R/B 4.2 21:58:29 10° NNE 22:02:44 42° E 22:04:14 31° SE
Cosmos 1953 Rocket 4.2 21:58:37 10° NNW 22:02:48 47° W 22:04:56 25° SSW
Cosmos 1833 4.2 21:57:58 13° SSW 22:03:06 87° WNW 22:08:47 10° NNE
Cosmos 2297 Rocket 3.7 22:01:45 17° ESE 22:03:07 19° E 22:06:58 10° ENE
Cosmos 1461 4.5 22:00:09 10° W 22:03:29 31° NW 22:06:48 10° NNE
Cosmos 44 3.6 21:59:08 10° NW 22:04:28 61° SW 22:06:56 31° SSE
Cosmos 2360 Rocket 3.5 22:03:30 10° NW 22:08:16 28° WSW 22:11:23 17° SSW
Cosmos 2322 3.7 22:04:58 10° NNW 22:10:43 89° ENE 22:13:46 29° SSE
Meteor 2-6 Rocket 4.4 22:08:15 28° S 22:11:28 66° E 22:17:22 10° NNE
Cosmos 2026 Rocket 4.5 22:08:01 10° NNW 22:14:14 56° W 22:18:17 22° SSW
ISS -3.7 22:11:02 10° W 22:14:19 53° SSW 22:14:19 53° SSW
USA 290 4.0 22:12:10 12° WSW 22:14:38 30° NW 22:17:28 10° N
Cosmos 2058 Rocket 3.1 22:14:25 30° SSW 22:16:30 74° WNW 22:20:52 10° N
GP-B 4.3 22:13:27 10° NNE 22:17:19 30° E 22:18:52 24° ESE
Helios 1A 3.2 22:16:42 10° N 22:20:35 59° WNW 22:22:29 27° SW
CZ-4C R/B 4.4 22:15:56 10° WNW 22:20:37 29° N 22:26:28 10° ENE
SAR-Lupe-2 4.1 22:20:01 36° ESE 22:20:47 44° ENE 22:23:59 10° N
Cosmos 2219 Rocket 3.2 22:16:45 10° NW 22:21:48 34° WSW 22:24:29 22° SSW
Cosmos 2266 Rocket 4.2 22:17:32 10° N 22:23:30 57° ENE 22:26:50 26° SE
Cosmos 1975 2.6 22:20:49 10° N 22:24:30 74° ENE 22:25:24 48° SSE
KORONAS-FOTON 3.7 22:25:06 43° SW 22:25:59 65° WNW 22:29:22 10° N
Cosmos 841 Rocket 3.7 22:28:15 33° SSE 22:30:14 53° ESE 22:35:21 10° NNE
RESURS DK-1 2.3 22:27:37 10° NW 22:31:35 67° WSW 22:32:35 46° S
ARIANE 5 R/B 2.6 22:32:16 38° S 22:33:56 80° WSW 22:38:25 10° NNW
Meteor 1-19 Rocket 4.4 22:32:11 31° SSE 22:34:55 62° E 22:40:48 10° NNE
ALOS 2 2.5 22:33:58 39° SSE 22:35:35 89° NE 22:40:00 10° NNW
Cosmos 2322 Rocket 4.2 22:36:20 10° WNW 22:39:37 16° W 22:42:34 11° SW
SL-16 R/B 3.9 22:41:47 10° NNW 22:46:49 30° NE 22:51:48 10° ESE
Cosmos 1271 Rocket 2.6 22:46:13 47° SW 22:46:57 62° WNW 22:50:19 10° N
Cosmos 1842 3.4 22:47:39 38° WSW 22:48:15 44° WNW 22:51:19 10° N
Lacrosse 4 Rocket 3.0 22:51:57 19° ESE 22:51:57 19° ESE 22:54:49 10° ENE
Meteor 2-9 Rocket 4.3 22:48:10 10° NNW 22:53:30 60° W 22:55:56 32° SSW
Cosmos 1766 Rocket 4.2 22:49:30 10° N 22:53:40 46° ENE 22:55:20 30° SE
Spot 4 4.1 22:51:57 35° SSW 22:53:45 56° W 22:58:29 10° NNW
PSLV R/B 3.5 22:50:18 10° NNE 22:54:36 74° ESE 22:55:59 42° S
Cosmos 2237 Rocket 2.2 22:53:27 10° NNW 22:59:11 83° ENE 23:02:17 28° SE
CZ-2C R/B 2.8 22:58:58 28° SE 23:01:40 64° ENE 23:06:49 10° N
BREEZE-M DEB (TANK) 3.9 22:48:35 10° WSW 23:02:11 71° SSE 23:05:46 10° E
Cosmos 1980 3.6 22:57:38 10° NNW 23:03:20 87° WSW 23:06:13 31° SSE
ARGOS Delta rocket 4.1 22:58:51 10° N 23:03:59 80° WNW 23:06:31 32° SSW
Cosmos 858 Rocket 4.4 22:59:26 10° NNW 23:04:37 73° WSW 23:06:42 36° S
Cosmos 1937 Rocket 3.8 23:02:42 10° NNW 23:07:40 50° WSW 23:09:26 35° SSW
NOSS 8 (H) 4.4 23:06:32 10° NW 23:08:57 51° W 23:08:57 51° W
COSMOS 2428 3.3 23:04:47 10° NW 23:10:07 42° WSW 23:12:10 30° SSW
NOSS 0 Rocket 4.2 23:06:51 10° NW 23:12:49 53° WSW 23:15:26 32° S
Cosmos 2227 Rocket 3.4 23:11:04 22° SE 23:12:59 27° ESE 23:17:41 10° NE
Meteor 1-11 Rocket 3.8 23:07:41 10° NNW 23:13:18 64° W 23:15:45 33° SSW
Meteor 2-4 Rocket 4.1 23:11:49 31° SSE 23:14:08 51° E 23:19:29 10° NNE
MetOp-A 3.8 23:18:10 38° S 23:20:00 70° WSW 23:24:40 10° NNW
Meteor 1-10 Rocket 4.4 23:17:23 30° SSW 23:20:25 78° WNW 23:26:25 10° NNE
Cosmos 2263 Rocket 3.8 23:20:54 17° SE 23:22:57 21° ESE 23:27:02 10° NE
Cosmos 1238 Rocket 2.9 23:25:54 46° SSE 23:26:59 70° E 23:31:22 10° NNE
Cosmos 1812 Rocket 4.0 23:25:18 32° SW 23:27:01 53° WNW 23:31:22 10° N
USA 234 3.3 23:23:49 10° ENE 23:30:19 61° SE 23:34:29 23° SW
SeaSat 1 2.6 23:28:37 23° SE 23:31:42 73° NE 23:36:37 10° NNW
CZ-2C R/B 3.3 23:27:07 10° NNE 23:32:54 90° ESE 23:35:48 32° SSW
Cosmos 1758 4.4 23:30:36 10° N 23:33:55 32° ENE 23:35:23 23° ESE
ACS3 Solar Sail 2.6 23:28:32 10° NNE 23:34:08 39° E 23:37:20 23° SSE
Meteor 1-27 Rocket 3.7 23:32:34 32° SSW 23:35:25 87° WNW 23:41:11 10° NNE
Cosmos 2221 3.8 23:35:23 22° WSW 23:37:14 32° WNW 23:41:02 10° N
ATLAS 2AS CENTAUR R/B 3.7 23:31:21 10° NW 23:37:53 46° NNE 23:44:23 10° E
Meteor 2-20 Rocket 4.2 23:37:28 33° S 23:40:13 89° ESE 23:45:59 10° NNE
BlueWalker 3 3.1 23:41:17 25° ESE 23:41:17 25° ESE 23:43:25 10° E
Cosmos 1125 Rocket 4.2 23:41:10 10° NNW 23:46:22 52° ENE 23:50:47 14° SE
Cosmos 2297 Rocket 2.1 23:43:29 30° SSW 23:46:25 88° WNW 23:52:07 10° NNE
Okean 3 Rocket 3.9 23:42:44 10° N 23:47:14 62° ENE 23:49:21 30° SSE
Landsat 5 3.4 23:46:23 10° NNE 23:50:29 73° ESE 23:51:40 44° S
Cosmos 1340 Rocket 4.1 23:47:38 10° N 23:51:10 34° ENE 23:53:20 19° ESE
Meteor 2-10 Rocket 3.6 23:48:43 10° NNW 23:54:14 81° W 23:57:07 31° S
GP-B 4.1 23:50:25 10° NNW 23:54:23 35° W 23:56:01 26° WSW
Cosmos 1842 Rocket 3.5 23:53:33 39° S 23:55:06 76° E 23:59:32 10° NNE
